Flag for Guadeloupe Weather past 2 weeks in Basse-Terre, Guadeloupe

81 °F


Feels Like: 85 °F
Forecast: 77 / 86 °F
Wind: 3 mph from Southeast

Location: Le Raizet - Guadeloupe

Current Time: Oct 5, 2015 at 12:30:30 AM

Latest Report: Oct 4, 2015 at 11:30 PM

Visibility: N/A

Pressure: 29.95 "Hg

Humidity: 79%

Dew point: 73 °F

Location of Basse-TerreLocation

Historic Weather in Basse-Terre — Graph


Basse-Terre temperature yesterday

Maximum temperature yesterday: 90 °F (at 10:30 AM)
Minimum temperature yesterday: 79 °F (at 4:00 AM)
Average temperature yesterday: 84 °F

Past Weeks' High & Low Weather Summary

High91 °F (Sep 26, 1:30 PM)100% (Sep 21, 5:00 AM)29.98 "Hg (Sep 21, 5:00 AM)
Low73 °F (Sep 26, 5:30 AM)46% (Sep 26, 2:30 PM)29.74 "Hg (Oct 1, 4:00 AM)
Average83 °F79%29.88 "Hg
* Reported Sep 19 11:00 PM — Oct 4 11:00 PM, Basse-Terre, Weather by CustomWeather, © 2015

Note: Actual official high and low records may vary slightly from our data, if they occured in-between our weather recording intervals... More about our weather records


Basse-Terre weather history for previous 24 hours

Time TempWeatherWind HumidityBarometerVisibility
11:00 PM
Sun, Oct 4
81 °FWarm.5 mph79%29.98 "HgN/A
10:30 PM82 °FPassing clouds.6 mph79%29.98 "HgN/A
10:00 PM82 °FWarm.6 mph79%29.98 "HgN/A
9:30 PM82 °FWarm.7 mph79%29.98 "HgN/A
9:00 PM82 °FPassing clouds.6 mph79%29.95 "HgN/A
8:30 PM82 °FWarm.7 mph84%29.95 "HgN/A
8:00 PM82 °FWarm.5 mph84%29.95 "HgN/A
7:30 PM82 °FWarm.5 mph84%29.95 "HgN/A
7:00 PM82 °FWarm.5 mph84%29.92 "HgN/A
6:30 PM84 °FWarm.8 mph74%29.92 "HgN/A
5:30 PM84 °FPassing clouds.10 mph79%29.89 "HgN/A
5:00 PM86 °FPassing clouds.10 mph75%29.89 "HgN/A
4:30 PM86 °FScattered clouds.12 mph75%29.89 "HgN/A
4:00 PM86 °FBroken clouds.12 mph75%29.89 "HgN/A
3:30 PM88 °FScattered clouds.12 mph66%29.89 "HgN/A
3:00 PM90 °FBroken clouds.10 mph67%29.89 "HgN/A
2:30 PM90 °FPartly sunny.10 mph67%29.89 "HgN/A
2:00 PM90 °FPartly sunny.12 mph67%29.89 "HgN/A
1:30 PM88 °FPartly sunny.10 mph70%29.89 "HgN/A
1:00 PM90 °FPartly sunny.12 mph67%29.89 "HgN/A
12:30 PM88 °FPartly sunny.10 mph70%29.92 "HgN/A
12:00 PM88 °FPartly sunny.9 mph70%29.92 "HgN/A
11:30 AM88 °FPartly sunny.12 mph70%29.92 "HgN/A
11:00 AM88 °FPartly sunny.9 mph70%29.92 "HgN/A
10:30 AM90 °FPartly sunny.12 mph67%29.92 "HgN/A
10:00 AM88 °FPartly sunny.10 mph70%29.95 "HgN/A
9:30 AM88 °FPassing clouds.10 mph70%29.95 "HgN/A
9:00 AM86 °FPartly sunny.10 mph79%29.95 "HgN/A
8:30 AM84 °FBroken clouds.6 mph89%29.92 "HgN/A
8:00 AM82 °FRain. Partly sunny.7 mph89%29.92 "Hg6 mi
7:30 AM82 °FScattered clouds.2 mph89%29.92 "HgN/A
7:00 AM81 °FPassing clouds.1 mph94%29.89 "HgN/A
6:30 AM81 °FScattered clouds.2 mph94%29.89 "HgN/A
6:00 AM79 °FScattered clouds.2 mph94%29.89 "HgN/A
5:30 AM79 °FPassing clouds.2 mph94%29.89 "HgN/A
5:00 AM79 °FPassing clouds.3 mph94%29.89 "HgN/A
4:30 AM79 °FPassing clouds.3 mph94%29.86 "HgN/A
4:00 AM79 °FPassing clouds.5 mph94%29.89 "HgN/A
3:30 AM81 °FPassing clouds.5 mph94%29.89 "HgN/A
3:00 AM81 °FPassing clouds.6 mph94%29.89 "HgN/A
2:30 AM81 °FLight rain. Passing clouds.9 mph94%29.89 "Hg6 mi
2:00 AM81 °FWarm.3 mph94%29.89 "HgN/A
1:30 AM81 °FPartly cloudy.5 mph94%29.89 "HgN/A
1:00 AM81 °FPassing clouds.5 mph94%29.92 "HgN/A
12:30 AM81 °FPassing clouds.5 mph89%29.92 "HgN/A
12:00 AM81 °FPartly cloudy.3 mph89%29.92 "HgN/A
Weather by CustomWeather, © 2015

See weather overviewHow to use our weather pages